Regional Weather Roundup
Issued by NWS

Home | Current Version | Previous Version | Text Only | Print | Product List | Glossary On
Versions: 1 2 3 4 5 6 7 8 9 10 11 12 13 14 15 16 17 18 19 20 21 22 23 24 25 26 27
000
ASUS42 KTBW 191916
RWRFL
FLORIDA REGIONAL WEATHER ROUNDUP
NATIONAL WEATHER SERVICE TAMPA BAY RUSKIN FL
200 PM EST SUN NOV 19 2017

NOTE: "FAIR" INDICATES FEW OR NO CLOUDS BELOW 12,000 FEET WITH NO
SIGNIFICANT WEATHER AND/OR OBSTRUCTIONS TO VISIBILITY.

FLZ001>010-012>015-112-114-115-192000-
PANHANDLE FLORIDA

CITY           SKY/WX    TMP DP  RH WIND       PRES   REMARKS
PENSACOLA      SUNNY     62  33  33 N16G23    30.06F
PENSACOLA NAS  MOSUNNY   62  31  31 N16G25    30.06F
MILTON NAS     SUNNY     60  35  39 NW12G24   30.06
CRESTVIEW      SUNNY     61  35  37 N8G22     30.06F
DUKE FIELD     FAIR      62  32  33 NW16      30.04F
VALPARAISO     MOSUNNY   63  31  30 N14       30.03F
MARY ESTHER    SUNNY     64  34  33 N17       30.03F
PANAMA CITY    FAIR      64  36  35 N16       30.01F
TYNDALL AFB    SUNNY     65  38  36 N13       30.00F
APALACHICOLA   SUNNY     68  42  38 N16G23    29.98F

STATION/POSITION SKY/WX   TEMP    WIND        PRES    WAVE   SWELL
                          AIR SEA DIR/SP/G            HT/PER HT/PER
                          (F)     (DEG/KT/KT) (MB)    (FT/S) (FT/S)
29.2N   88.2W              60 79  360/ 17/ 23 1018.8F   7/ 7
28.8N   86.0W              63 78  350/ 23/ 27 1015.3F   8/ 7
PANAMA CITY BEAC           62 71  360/ 11/ 16 1016.8F
TOWER C                    62     360/ 16/ 17 1015.2F
28.5N   84.5W              64 76  350/ 14/ 21 1014.3F   5/ 7   2/14

$$
FLZ011-016>038-118-127-128-134-139-239-192000-
NORTH FLORIDA

CITY           SKY/WX    TMP DP  RH WIND       PRES   REMARKS
MARIANNA       SUNNY     64  31  28 N17       30.01F
TALLAHASSEE    MOSUNNY   66  37  34 NW17      29.98F
PERRY          SUNNY     68  45  44 N9        29.96S
LIVE OAK       SUNNY     66  43  42 N9        29.96S
CROSS CITY     SUNNY     69  51  53 N9        29.98S
LAKE CITY      FAIR      64  45  48 N8        29.93F
GAINESVILLE    MOSUNNY   71  57  61 N12       29.92F
WILLISTON      MOSUNNY   73  61  64 CALM      29.91S
PALATKA        CLOUDY    68  63  83 NW9       29.90S
MAYPORT NAS    SUNNY     69  48  47 W9G17     29.89F
JACKSONVILLE   MOSUNNY   70  48  45 NW14      29.90S
JAX NAS        MOSUNNY   69  48  47 NW12      29.91S
JAX CECIL      SUNNY     70  57  64 NW7       29.91F
ST AUGUSTINE   CLOUDY    68  60  75 NW13      29.90S
PALM COAST     CLOUDY    72  66  83 W7        29.87F

STATION/POSITION SKY/WX   TEMP    WIND        PRES    WAVE   SWELL
                          AIR SEA DIR/SP/G            HT/PER HT/PER
                          (F)     (DEG/KT/KT) (MB)    (FT/S) (FT/S)
SHELL POINT      NOT AVBL
KEATON BEACH               66     340/  4/  7 1013.8F
CEDAR KEY                  67     310/  8/ 10 1013.2F
FERNANDINA                 65 66  290/  9/ 13 1013.2F
30.7N   81.3W                 67                N/A     2/ 3
MAYPORT                    66 68  310/ 11/ 16 1012.6F
31.4N   80.9W              61 68  290/ 14/ 17 1011.8F   3/ 4
ST AUGUSTINE               66 69  320/  8/ 10 1012.2F

$$
FLZ040-043>046-052-053-057-058-063-144-192000-
INTERIOR CENTRAL FLORIDA

CITY           SKY/WX    TMP DP  RH WIND       PRES   REMARKS
OCALA          CLOUDY    70  64  83 NW9       29.90F
THE VILLAGES     N/A     75  72  88 MISG      29.79F
LEESBURG       CLOUDY    74  70  87 W10       29.89F
SANFORD        CLOUDY    71  68  90 SW9       29.88F
ORLANDO EXEC   CLOUDY    72  69  90 NW7       29.89S
ORLANDO INTL   LGT RAIN  70  69  97 NW8       29.90R
KISSIMMEE      LGT RAIN  75  65  70 W8        29.90S
WINTER HAVEN   LGT RAIN  74  66  76 W8        29.91F
LAKELAND       LGT RAIN  73  66  78 W12G23    29.92S
BARTOW         PTSUNNY   77  61  57 W13       29.90F
SEBRING        FAIR      84  60  43 W13       29.88F
OKEECHOBEE     SUNNY     82  61  47 W8        29.88F

$$
FLZ041-047-054-059-064-141-147-192000-
EAST CENTRAL FLORIDA

CITY           SKY/WX    TMP DP  RH WIND       PRES   REMARKS
ORMOND BEACH   PTSUNNY   73  66  78 W12       29.87F
DAYTONA BEACH  CLOUDY    74  67  78 W13       29.87F
DELAND         CLOUDY    72  66  83 SW9       29.88F
NEW SMYRNA BEA PTSUNNY   72  66  83 SW9G17    29.88F
JFK SPACE CTR  PTSUNNY   79  67  67 NW9       29.86F
TITUSVILLE     CLOUDY    82  63  51 W16       29.87F
CAPE CANAVERAL MOSUNNY   82  64  54 W9        29.85F
PATRICK AFB    SUNNY     83  64  53 W13       29.86F
MELBOURNE      SUNNY     84  62  47 W13       29.87F
VERO BEACH     SUNNY     82  62  50 W13       29.88F
FT PIERCE      SUNNY     82  63  52 W13       29.88F
STUART         SUNNY     82  59  44 W12       29.90F

STATION/POSITION SKY/WX   TEMP    WIND        PRES    WAVE   SWELL
                          AIR SEA DIR/SP/G            HT/PER HT/PER
                          (F)     (DEG/KT/KT) (MB)    (FT/S) (FT/S)
28.5N   80.2W              75 76  220/ 10/ 12 1011.4F   2/11   2/11
TRIDENT PIER     NOT AVBL
27.5N   80.2W                 75                N/A     2/10   2/11

$$
FLZ050-056-061-142-242-148-248-149-249-151-251-155-255-
160-260-192000-
WEST CENTRAL FLORIDA

CITY           SKY/WX    TMP DP  RH WIND       PRES   REMARKS
CRYSTAL RIVER  CLOUDY    72  64  78 NW3       29.90F
INVERNESS      CLOUDY    70  68  94 W3        29.91S FOG
BROOKSVILLE    CLOUDY    68  65  90 W10       29.91F
CLEARWATER AIR CLOUDY    68  64  88 NW12      29.91F
ST PETE CLEARW CLOUDY    74  69  85 W9        29.90F
TAMPA INTL     CLOUDY    72  69  90 W7        29.91F
TAMPA EXEC     DRIZZLE   70  68  94 SW3       29.91F
PLANT CITY     DRIZZLE   73  68  83 W8        29.94R
MACDILL AFB    DRIZZLE   72  72 100 SW5       29.90F
PETER O KNIGHT   N/A    N/A N/A N/A CALM      29.91F
ST PETERSBURG  CLOUDY    73  68  84 W9        29.89F
SARASOTA       CLOUDY    77  67  71 W9        29.90F
VENICE         FAIR      79  70  73 W9        29.92F

STATION/POSITION SKY/WX   TEMP    WIND        PRES    WAVE   SWELL
                          AIR SEA DIR/SP/G            HT/PER HT/PER
                          (F)     (DEG/KT/KT) (MB)    (FT/S) (FT/S)
27.3N   84.2W                 77                N/A     3/ 4
CLEARWATER BEACH           68 71  340/ 14/ 15 1013.2F
MIDDLE TAMPA BAY           71     300/  9/ 10 1012.9F
VENICE                     76 74  250/  8/  9 1012.9F

$$
FLZ066-069-070-075>078-162-262-165-265-192000-
SOUTHWEST FLORIDA AND KEYS

CITY           SKY/WX    TMP DP  RH WIND       PRES   REMARKS
PUNTA GORDA    MOSUNNY   81  65  58 W13G21    29.92F
FT MYERS       MOSUNNY   80  65  59 W14       29.90F
SOUTHWEST INTL SUNNY     80  65  59 W14       29.91F
NAPLES         SUNNY     77  66  68 SW9       29.91F
MARCO ISLAND   SUNNY     79  65  62 VRB7      29.93F
IMMOKALEE      FAIR      82  63  51 W12G18    29.91F
MARATHON       SUNNY     78  63  59 N7        29.91F
KEY WEST NAS   MOSUNNY   79  67  66 N8        29.92F
KEY WEST INTL  SUNNY     80  63  55 NW8       29.93F

STATION/POSITION SKY/WX   TEMP    WIND        PRES    WAVE   SWELL
                          AIR SEA DIR/SP/G            HT/PER HT/PER
                          (F)     (DEG/KT/KT) (MB)    (FT/S) (FT/S)
NAPLES                        75  250/  7/  8 1013.1F
DRY TORTUGAS               79     230/  1/  2 1013.5F
SAND KEY                   75                 1014.1F
MOLASSES REEF              77 78  230/  3/  4 1012.9F

$$
FLZ067-068-071>074-168-172>174-192000-
SOUTHEAST FLORIDA

CITY           SKY/WX    TMP DP  RH WIND       PRES   REMARKS
W PALM BEACH   SUNNY     81  59  47 W12       29.90F
BOCA RATON     SUNNY     81  57  44 NW10      29.89F
FT LAUDER-EXEC SUNNY     80  62  54 W8        29.89F
FT LAUDERDALE  SUNNY     81  59  47 W8        29.89F
POMPANO BEACH  SUNNY     83  57  41 W12       29.89F
PEMBROKE PINES SUNNY     82  59  45 W9        29.91F
OPA LOCKA      SUNNY     81  64  56 W8        29.90F
MIAMI          MOSUNNY   83  60  45 W6        29.90F
WEST KENDALL   SUNNY     81  61  50 W8        29.90F
HOMESTEAD      MOSUNNY   81  63  53 S3        29.90F

STATION/POSITION SKY/WX   TEMP    WIND        PRES    WAVE   SWELL
                          AIR SEA DIR/SP/G            HT/PER HT/PER
                          (F)     (DEG/KT/KT) (MB)    (FT/S) (FT/S)
PORT EVERGLADES            80     280/  8/ 12 1012.5F
VIRGINIA KEY               78 78  200/  4/  5 1012.2F
LAKE WORTH                 79 79  260/  9/ 11 1013.2F
FOWEY ROCKS                78 78  200/  2/  3 1013.1F
SETTLEMENT POINT           77     260/ 11/ 12 1012.6F

$$





USA.gov is the U.S. government's official web portal to all federal, state and local government web resources and services.